Location: Domachevo
(51.7500°N, 23.6000°E)
Time: 12:22:51
(UTC+03:00)

Envisat - Visible Passes

Search period start: 20 April 2018 00:00
Search period end: 30 April 2018 00:00
Orbit: 764 x 766 km, 98.2° (Epoch: 19 April)

Date Brightness Start Highest point End Pass type
(mag) Time Alt. Az. Time Alt. Az. Time Alt. Az.
20 Apr 3.9 21:05:15 10° S 21:10:11 51° W 21:15:10 10° NNW visible
21 Apr 5.6 22:09:51 10° SW 22:13:05 17° W 22:16:20 10° NW visible
22 Apr 4.8 21:31:25 10° SSW 21:35:56 32° W 21:40:30 10° NNW visible
24 Apr 5.5 21:58:03 10° SW 22:01:48 20° W 22:05:33 10° NW visible
25 Apr 4.5 21:19:58 10° SSW 21:24:42 39° W 21:29:29 10° NNW visible
26 Apr 5.8 22:25:36 10° WSW 22:27:44 13° W 22:29:54 10° WNW visible
27 Apr 5.2 21:46:23 10° SW 21:50:30 25° W 21:54:40 10° NW visible
29 Apr 5.7 22:13:27 10° WSW 22:16:25 15° W 22:19:25 10° NW visible
